SCP
1 1 1 1 1 1 1 1 1 1 1 1 1 1 1 0 0 0 0 0 0 0 0 0 0 0 0 0 0 0 0 0 0 0 0 0 0 0 0 0 0 0 0
1 1 1 1 1 1 1 1 1 1 1 1 1 1 1 1 0 0 1 0 0 0 0 1 1 0 0 0 0 0 0 0 0 0 0 0 0 0 0 0 0 0 0
1 1 1 1 1 1 1 1 1 1 1 1 1 1 1 1 1 1 1 1 0 0 1 1 1 1 0 0 0 0 0 0 0 0 0 0 0 0 0 0 0 0 0
1 1 1 1 1 1 1 1 1 1 1 1 1 1 1 1 1 1 1 1 1 1 1 1 1 1 1 0 0 0 1 0 0 0 0 0 0 0 0 0 0 0 0
1 1 1 1 1 1 1 1 1 1 1 1 1 1 1 1 1 1 1 1 1 1 1 1 1 1 1 1 1 1 1 1 0 0 0 0 0 0 0 0 0 0 0
1 1 1 1 1 1 1 1 1 1 1 1 1 1 1 1 1 1 1 1 1 1 1 1 1 1 1 1 1 1 1 0 0 0 0 0 0 0 0 0 0 0 0
1 1 1 1 1 1 1 1 1 1 1 1 1 1 1 1 1 1 1 1 1 1 1 1 1 1 1 1 1 1 1 0 0 0 0 0 0 0 0 0 0 0 0
1 1 1 1 1 1 1 1 1 1 1 1 1 1 1 1 1 1 1 1 1 1 1 1 1 1 1 1 1 1 1 1 0 0 0 0 0 0 0 0 0 0 0
1 1 1 1 1 1 1 1 1 1 1 1 1 1 1 1 1 1 1 1 1 1 1 1 1 1 1 1 1 1 1 1 1 0 0 0 0 0 0 0 0 0 0
1 1 1 1 1 1 1 1 1 1 1 1 1 1 1 1 1 1 1 1 1 1 1 1 1 1 1 1 1 1 1 1 1 0 0 0 0 0 0 0 0 0 0
1 1 1 1 1 1 1 1 1 1 1 1 1 1 1 1 1 1 1 1 1 1 1 1 1 1 1 1 1 1 1 1 1 0 0 0 0 0 0 0 0 0 0
1 1 1 1 1 1 1 1 1 1 1 1 1 1 1 1 1 1 1 1 1 1 1 1 1 1 1 1 1 1 1 1 1 0 0 0 0 0 0 0 0 0 0
1 1 1 1 1 1 1 1 1 1 1 1 1 1 1 1 1 1 1 1 1 1 1 1 1 1 1 1 1 1 1 1 0 0 0 0 0 0 0 0 0 0 0
1 1 1 1 1 1 1 1 1 1 1 1 1 1 1 1 1 1 1 1 1 1 1 1 1 1 1 1 1 1 1 1 0 0 0 0 0 0 0 0 0 0 0
0 1 1 1 1 1 1 1 1 2 2 2 2 2 1 1 1 1 1 1 1 1 1 1 1 1 1 1 1 1 1 1 0 0 0 0 0 0 0 0 0 0 0
0 1 1 1 1 1 1 1 2 2 2 2 2 2 2 1 1 1 1 1 1 1 1 1 1 1 0 0 0 0 0 0 0 0 0 0 0 0 0 0 0 0 0
1 1 1 1 1 1 1 1 2 2 2 2 2 2 2 1 1 1 1 1 1 1 1 1 1 1 0 0 0 0 0 0 0 1 0 0 0 0 0 0 0 0 0
1 1 1 1 1 1 1 1 1 2 2 2 2 2 2 1 1 1 1 1 1 1 1 1 1 1 1 0 0 0 0 0 0 0 0 0 0 0 0 0 0 0 0
1 1 1 1 1 1 1 1 1 2 2 2 2 2 2 1 1 1 1 1 1 1 1 1 1 1 1 0 0 0 0 0 0 0 0 0 0 0 0 0 0 0 0
1 1 1 1 1 1 1 1 1 1 2 2 1 1 1 1 1 2 2 1 1 1 1 1 1 1 1 0 0 0 0 0 0 0 0 0 0 0 0 0 0 0 0
1 1 1 1 1 1 1 1 1 1 1 1 1 1 1 1 1 2 2 2 1 1 1 1 1 1 1 0 0 0 0 0 0 0 0 0 0 0 0 0 0 0 0
1 1 1 1 1 1 1 2 2 2 1 1 1 1 1 1 1 2 2 2 1 1 1 1 1 1 1 0 0 0 0 0 0 0 0 0 0 0 0 0 0 0 0
1 1 1 1 1 1 1 2 2 2 2 1 1 1 1 1 1 1 2 2 1 1 1 1 1 1 0 0 0 0 0 0 0 0 0 0 0 0 0 0 0 0 0
1 1 1 1 1 1 1 1 2 2 2 1 1 1 1 1 1 1 1 1 1 1 1 1 1 1 0 0 0 0 0 0 0 0 0 0 0 0 0 0 0 0 0
1 1 1 1 1 1 1 1 1 1 1 1 1 1 1 1 1 1 1 1 1 1 1 0 0 0 0 0 0 0 0 0 0 0 0 0 0 0 0 0 0 0 0
1 1 1 1 1 2 2 1 1 1 1 1 1 1 1 1 1 1 1 1 0 0 0 0 0 0 0 0 0 0 0 0 0 0 0 0 0 0 0 0 0 0 0
Wind_Speed
8 7 6 6 7 7 6 5 4 3 2 1 1 1 1 1 1 1 1 0 0 1 1 2 1 1 1 1 2 1 2 3 2 2 3 3 3 3 3 2 3 3 3
9 7 7 7 7 7 6 6 4 3 2 1 1 1 1 1 1 1 1 0 1 1 1 0 1 1 1 1 2 1 2 3 2 1 2 2 1 2 3 3 3 3 3
9 9 7 7 7 7 7 5 4 4 2 2 1 0 1 0 0 0 0 0 1 1 2 1 1 1 1 1 2 1 2 2 2 1 1 1 1 2 1 2 2 2 2
9 10 9 7 6 7 8 6 5 4 3 2 2 1 1 1 1 1 1 1 1 1 1 1 1 1 2 2 2 1 2 2 2 2 2 1 1 1 2 2 1 3 2
8 9 9 8 6 7 8 8 6 5 4 2 2 1 0 1 0 0 1 1 1 0 1 1 1 2 2 2 2 2 2 2 3 3 2 1 1 3 2 2 1 1 2
9 8 8 7 6 6 7 8 7 5 4 3 2 2 1 2 0 1 0 1 1 0 1 1 1 1 2 2 2 2 2 2 3 3 3 2 1 1 2 3 2 2 2
8 8 8 8 7 6 6 7 7 6 5 4 3 2 2 2 1 1 1 2 1 0 0 1 1 1 2 2 2 1 2 2 3 2 2 3 2 2 2 2 2 2 1
9 8 8 8 7 7 6 7 7 5 5 4 4 3 2 2 1 1 2 1 1 1 1 0 0 1 2 2 2 2 2 2 2 2 2 2 3 2 2 1 1 2 2
9 8 7 7 7 6 6 7 7 6 4 4 3 3 3 2 1 1 1 1 1 1 1 1 1 1 1 2 2 1 2 2 2 2 2 2 2 2 2 2 1 1 2
9 8 6 6 5 6 6 5 6 6 5 4 3 3 3 2 2 1 1 1 1 1 1 1 1 1 1 2 2 1 1 2 2 2 2 3 3 3 3 2 2 1 1
8 8 7 6 5 5 5 5 4 5 5 4 4 3 3 2 1 1 0 1 0 1 1 1 1 1 1 2 2 2 1 2 2 3 3 3 3 3 3 3 2 2 2
6 7 7 6 5 4 4 4 3 3 3 3 3 2 2 2 1 1 0 0 1 1 1 1 1 1 1 1 1 2 2 2 2 2 3 3 3 4 4 3 3 2 2
5 5 5 5 4 3 3 3 2 2 3 2 2 2 2 2 1 1 1 1 1 1 1 1 0 1 1 2 2 2 2 2 1 2 2 2 3 3 3 3 3 3 3
4 4 5 5 4 3 3 2 1 2 2 2 2 2 2 2 1 1 1 1 1 1 0 0 1 0 1 1 2 2 2 2 1 1 1 1 2 2 3 3 3 3 3
4 4 5 4 4 4 3 2 2 2 1 1 2 2 2 1 1 1 1 1 1 1 1 0 0 1 0 1 2 3 1 1 2 1 1 0 2 2 3 3 3 3 2
4 3 4 4 3 3 3 2 2 2 1 1 1 1 2 2 2 2 1 1 1 1 1 1 0 1 1 2 2 2 2 2 2 2 2 1 1 1 1 3 4 3 2
4 3 3 3 3 3 2 2 2 2 2 1 2 2 2 2 2 2 2 1 1 1 1 1 1 1 1 0 1 2 3 3 2 1 2 3 2 2 2 2 3 3 1
3 3 2 2 2 3 2 1 1 2 2 2 2 2 3 3 2 2 2 2 2 2 2 2 2 2 2 2 2 3 4 4 3 2 2 1 0 1 2 3 2 2 1
4 3 2 2 3 2 2 1 1 1 1 2 2 2 2 2 2 3 2 2 2 2 3 3 3 3 3 3 3 3 3 3 4 3 2 2 2 1 2 2 3 2 2
3 3 3 4 3 3 1 0 1 1 1 2 2 2 2 2 3 3 2 2 2 3 4 4 3 3 3 4 4 3 3 4 3 2 2 1 2 2 1 2 3 4 3
4 4 3 3 2 1 1 0 1 1 2 2 2 2 2 3 4 3 3 3 3 4 4 4 3 3 4 5 5 5 3 3 3 2 1 1 2 2 3 4 4 5 4
3 3 3 2 2 2 1 1 2 2 2 2 3 3 3 4 4 3 3 4 3 4 4 3 3 3 3 4 5 6 5 5 4 4 1 0 2 4 6 5 6 6 5
2 2 1 1 2 2 2 2 3 3 3 3 3 4 4 4 4 3 4 3 3 3 3 3 3 2 1 3 4 5 6 6 4 3 4 4 5 5 5 6 7 5 4
2 1 1 1 2 2 2 2 3 3 4 4 4 4 4 4 3 2 3 2 2 2 2 2 2 1 1 1 1 2 2 3 3 3 4 5 6 5 5 4 4 4 4
2 2 2 2 2 2 3 3 3 3 4 4 4 5 5 3 2 2 2 2 1 1 2 2 2 1 1 1 2 2 2 2 2 3 3 2 2 2 3 3 3 3 3
1 1 2 2 2 2 2 3 3 3 4 5 5 5 4 3 2 2 1 1 1 2 2 2 3 2 2 3 3 2 3 2 2 2 3 3 3 3 3 3 3 2 2
Wind_Direction
145 148 151 146 139 135 136 136 140 133 148 159 174 187 199 216 144 123 105 96 276 282 270 340 330 332 336 311 287 298 300 283 277 290 295 266 227 204 186 186 183 186 187
150 152 152 149 145 142 141 141 145 141 161 164 184 183 166 236 122 52 122 159 253 287 269 302 316 314 288 300 303 317 287 292 308 302 304 300 313 294 215 185 189 193 191
155 156 155 153 153 151 149 148 145 140 150 139 132 91 106 353 49 80 112 327 308 322 324 14 327 316 295 291 288 271 287 291 305 283 264 288 296 295 274 212 196 188 189
155 155 157 157 158 157 151 142 144 140 149 155 156 209 161 206 229 218 148 241 238 260 316 350 343 324 315 314 294 343 300 297 296 282 240 224 212 275 304 276 214 199 200
151 153 152 151 156 157 151 146 144 146 154 168 157 193 274 266 292 348 69 260 234 265 353 28 360 348 330 328 331 331 325 307 301 301 292 253 222 232 241 269 256 228 208
145 143 141 143 150 149 150 147 147 153 160 165 171 192 229 262 302 312 286 258 239 191 76 30 359 351 334 330 329 319 319 308 307 313 319 311 267 248 245 254 253 238 229
140 140 141 148 150 149 146 141 145 155 164 171 180 188 219 256 235 277 279 287 287 237 115 20 348 342 320 318 328 327 318 309 301 306 310 309 300 291 272 273 274 270 247
141 141 147 151 151 147 149 145 144 157 170 176 180 183 201 224 226 246 284 293 314 340 43 36 321 319 316 326 330 332 321 328 320 315 311 303 310 311 293 272 283 294 289
135 137 140 146 150 147 154 159 152 155 163 173 187 179 189 214 243 244 257 305 329 339 27 360 352 341 332 327 323 356 349 336 330 331 344 322 308 308 302 296 270 260 285
136 134 132 132 140 149 158 152 154 160 168 167 186 180 189 212 229 220 252 296 325 349 344 348 7 356 334 322 332 344 347 347 347 342 357 336 323 317 310 305 292 272 258
140 142 143 143 144 145 142 143 150 155 160 168 185 185 165 182 179 154 266 307 320 342 354 6 12 10 6 355 3 350 9 5 351 348 354 337 328 323 316 318 318 319 304
135 139 140 140 142 139 138 137 142 142 138 149 161 164 150 149 163 144 103 29 60 48 45 47 24 352 16 6 2 347 2 6 3 357 351 339 341 338 337 333 327 310 296
134 132 129 129 136 131 126 130 145 143 131 123 137 132 111 99 79 76 82 83 76 39 32 58 46 349 11 21 6 3 355 351 358 352 339 344 350 342 333 324 324 312 309
119 126 123 130 130 123 125 129 141 127 123 131 157 141 141 148 157 118 122 122 132 164 169 5 318 337 32 28 3 344 328 332 329 314 322 0 6 348 321 315 326 319 311
128 124 126 132 142 145 138 138 145 120 112 133 160 153 153 163 160 142 151 153 198 212 208 221 306 292 233 3 360 319 319 324 318 313 312 40 64 28 349 345 340 332 327
121 120 132 139 148 142 142 151 157 148 137 171 181 172 179 175 179 195 187 185 209 239 251 257 257 304 337 9 5 335 323 317 309 321 321 245 127 49 338 341 339 332 324
101 92 110 131 138 142 138 164 166 154 163 199 201 197 207 202 195 219 202 204 216 224 234 239 223 219 141 161 328 322 300 285 284 283 300 312 24 46 355 315 309 324 296
83 78 79 110 125 131 137 173 190 175 189 210 218 216 212 213 205 216 228 222 223 228 235 235 225 212 196 208 238 278 271 266 257 246 246 258 37 338 335 308 311 301 304
70 69 68 65 75 86 131 160 215 202 220 230 231 232 227 227 231 228 230 235 239 249 247 243 236 219 195 210 227 254 274 267 259 240 240 211 185 281 332 294 292 292 287
75 62 58 58 66 37 37 77 297 291 288 280 270 263 244 236 239 235 233 231 232 243 250 249 241 226 201 201 210 219 267 275 270 239 206 183 188 215 263 271 279 277 280
62 68 71 63 55 33 23 311 303 318 332 327 309 287 261 250 239 227 229 229 232 241 250 250 239 228 210 193 203 215 250 288 291 279 232 173 179 222 249 259 261 263 280
67 57 65 62 44 29 28 342 324 327 329 315 300 288 275 269 252 222 232 233 231 238 242 246 249 238 209 193 202 221 244 272 285 288 296 219 244 261 261 256 258 271 281
66 57 58 54 40 26 11 348 336 329 310 295 287 282 273 264 258 238 235 234 231 245 248 236 244 250 193 168 189 220 253 264 271 294 313 291 263 265 259 250 255 263 262
37 11 17 33 23 9 355 351 331 322 308 294 292 283 275 267 261 249 247 243 246 247 260 272 274 275 100 117 175 228 254 266 273 292 298 272 256 254 262 262 245 234 245
9 3 7 9 4 4 352 351 337 319 307 299 291 283 275 273 260 243 260 261 258 224 246 278 288 287 260 216 193 224 254 280 307 314 295 284 279 270 261 253 242 231 234
9 6 1 352 3 360 341 334 327 322 309 299 292 286 278 266 258 231 230 52 181 162 194 235 252 249 202 176 182 219 243 253 275 295 283 284 280 276 276 275 269 254 244